Location: Azul
(36.7830°S, 59.8500°W)
Time: 09:45:20
(UTC-03:00)

NANOSAT C BR1 - Visible Passes

Search period start: 22 October 2021 00:00
Search period end: 01 November 2021 00:00
Orbit: 586 x 605 km, 98.0° (Epoch: 22 October)

Date Brightness Start Highest point End Pass type
(mag) Time Alt. Az. Time Alt. Az. Time Alt. Az.
26 Oct ? 01:22:32 10° S 01:22:32 10° S 01:22:38 10° S visible
27 Oct ? 01:32:22 12° S 01:32:22 12° S 01:32:38 10° S visible
28 Oct ? 01:42:12 12° S 01:42:12 12° S 01:42:35 10° S visible
29 Oct ? 01:52:02 13° S 01:52:02 13° S 01:52:29 10° S visible
30 Oct ? 02:01:53 13° SSW 02:01:53 13° SSW 02:02:21 10° SSW visible
31 Oct ? 02:11:43 13° SSW 02:11:43 13° SSW 02:12:09 10° SSW visible
